Theta_e
306 306 306 306 306 306 306 306 306 306 305 305 306 306 306 306 307 307 307 307 307 309 310 311 312 314 314 314 314 314 314 314 314 314 314 314 314 316 317 318 319 319 319 319 318 317 316 315 316 319 322 326 326 327 328 327 327 329 327 325 328 330 324 317 314 319 326 328 328 328 329 327 324 323 324 323 320 317 315 319 324 317 312 315 315 312 321
305 306 305 306 306 306 306 306 306 305 305 305 306 306 306 306 306 306 307 308 308 309 310 311 312 313 313 312 311 312 312 311 312 312 313 314 314 315 316 317 318 319 319 319 319 317 315 315 317 318 319 322 323 325 326 326 328 328 327 329 327 324 322 319 316 316 319 322 324 323 322 324 323 323 325 324 323 323 319 320 324 318 314 316 316 314 323
305 305 305 305 305 305 306 306 306 305 305 305 306 306 305 305 306 306 307 308 309 310 310 310 310 311 310 310 309 310 312 312 312 313 313 315 315 315 316 316 318 318 319 320 321 319 316 316 317 317 318 319 319 322 324 325 326 327 334 338 327 323 326 321 315 314 315 315 317 318 318 320 323 325 325 324 324 322 318 314 314 318 321 319 313 316 329
304 305 305 305 305 305 306 306 306 305 305 305 305 305 305 306 307 307 307 307 308 308 309 309 309 310 310 311 312 312 313 313 313 313 314 315 315 314 315 316 317 318 319 319 320 321 321 320 319 320 320 319 320 322 322 323 323 332 350 349 330 327 331 326 319 317 317 318 322 329 327 320 317 320 323 324 325 323 321 313 309 317 324 321 319 322 326
304 305 305 305 305 304 305 306 305 306 306 305 305 305 305 306 307 307 307 309 308 308 309 309 309 310 311 311 312 311 312 312 312 313 313 313 314 313 313 315 316 315 316 318 319 320 321 321 321 322 321 321 321 321 321 322 326 337 348 346 336 329 326 326 326 322 323 329 332 334 331 322 318 320 321 323 326 324 319 314 312 318 318 315 329 337 323
304 305 305 305 305 304 304 305 305 306 305 305 305 304 305 306 306 306 307 307 308 308 308 309 308 309 309 310 310 310 311 312 312 313 313 312 312 313 313 313 314 314 314 315 319 319 320 321 320 319 318 318 319 320 321 323 326 330 333 334 341 337 325 326 327 323 325 330 330 330 331 327 324 323 322 323 325 323 318 316 320 323 317 313 328 343 336
304 305 305 304 305 304 304 303 304 306 305 305 305 304 305 305 305 305 306 307 307 307 307 308 308 308 309 310 309 309 310 311 311 311 311 311 311 312 313 312 311 313 313 315 317 318 319 320 318 317 317 317 318 320 321 322 323 324 323 328 337 336 331 334 328 322 324 326 327 328 327 326 325 324 325 324 324 324 321 322 325 325 324 323 327 338 344
305 305 305 304 305 305 304 304 304 305 305 304 305 304 305 305 305 306 306 307 307 307 307 307 308 308 309 310 309 308 309 310 310 310 310 310 310 310 310 311 311 312 313 314 316 316 317 317 316 315 316 317 318 320 320 321 322 322 321 325 330 330 332 339 330 322 321 323 326 327 324 324 322 322 327 326 324 324 322 324 325 323 325 329 330 330 332
305 305 305 305 305 304 304 304 304 305 305 304 304 305 305 305 305 305 305 307 307 306 307 307 308 308 308 309 309 309 309 310 310 310 309 309 310 310 309 311 312 313 313 313 314 313 313 313 313 313 315 316 317 318 319 320 320 322 323 324 327 329 331 334 330 321 320 323 325 325 324 324 319 318 324 324 322 323 322 324 325 324 325 326 326 326 330
305 305 305 305 305 304 304 304 304 305 305 305 304 304 305 305 305 305 305 307 307 306 307 307 307 308 308 309 309 308 308 309 308 310 310 309 310 310 310 311 313 314 313 313 313 312 311 311 312 312 313 315 316 317 318 320 320 322 324 324 327 330 328 327 327 321 319 324 325 324 322 319 315 318 324 326 326 325 324 326 328 326 325 323 322 329 343
305 305 305 305 304 304 304 304 305 305 305 305 304 304 305 305 305 305 305 306 306 306 306 307 307 308 308 308 308 307 307 308 308 309 310 309 309 310 310 311 314 315 314 312 312 311 310 311 312 313 315 316 317 318 318 320 322 322 324 326 327 330 330 330 329 322 319 324 326 325 322 315 316 324 329 329 330 329 327 327 329 329 327 324 326 335 346
305 305 304 304 304 304 304 304 304 305 305 305 304 304 305 305 305 305 305 306 306 305 306 307 307 307 307 306 307 307 307 307 308 309 309 309 309 309 309 310 311 314 313 311 311 311 311 313 314 315 317 317 318 319 319 320 322 322 324 326 327 330 333 333 330 324 322 325 325 323 321 321 326 332 333 331 330 332 332 332 332 331 330 328 329 332 336
305 304 304 304 304 304 304 304 304 305 305 305 304 304 305 304 304 305 305 306 306 306 305 306 306 306 307 307 307 307 307 307 308 309 309 309 309 309 309 310 310 311 310 310 313 313 312 315 317 317 318 319 319 319 319 320 320 320 322 325 327 333 335 334 330 324 322 323 322 322 325 331 334 336 335 335 337 336 333 332 336 337 336 339 341 340 345
305 305 305 305 305 304 304 305 305 305 305 305 305 305 305 304 304 305 306 306 306 306 305 306 306 306 306 307 307 308 308 307 308 309 309 309 309 310 310 310 311 311 309 312 319 320 315 315 318 320 320 321 320 320 319 319 319 320 323 324 327 331 335 338 335 327 321 319 318 322 324 326 331 335 335 337 338 338 337 334 339 346 345 348 351 350 350
305 305 305 304 304 304 305 305 305 305 305 305 305 305 305 304 304 304 305 306 306 306 305 305 306 306 307 307 307 307 307 308 309 309 309 308 309 309 309 309 311 311 309 313 322 323 319 315 316 320 323 323 323 324 324 322 322 322 323 326 327 328 335 344 340 332 326 319 318 322 321 320 328 335 338 339 336 340 350 347 344 352 353 351 354 355 355
304 305 305 304 304 305 305 305 305 305 305 305 305 305 305 305 304 304 305 305 305 306 306 306 306 306 306 306 306 307 308 309 309 309 309 309 309 309 309 309 311 311 311 315 321 322 320 318 318 322 325 325 325 326 326 324 326 326 324 326 327 326 333 344 340 332 328 321 318 319 317 322 337 343 339 340 337 341 352 345 339 353 359 352 352 357 359
304 305 304 304 304 305 305 305 305 305 305 305 305 305 305 305 304 304 304 305 305 306 305 305 305 306 307 307 307 308 309 309 309 310 310 310 309 309 310 309 310 312 312 315 319 320 319 319 320 322 324 324 324 327 328 327 327 328 327 329 330 329 335 340 332 328 330 327 323 320 321 333 352 349 338 339 339 341 341 332 335 356 360 351 352 356 358
304 304 304 304 304 304 305 305 305 305 305 305 305 305 305 305 304 304 304 305 305 305 305 305 306 307 307 307 307 307 308 308 309 310 310 310 310 311 310 310 311 313 313 314 316 317 318 318 319 320 322 322 322 326 328 328 328 328 329 330 331 332 337 337 329 327 330 329 326 323 328 345 356 346 340 340 340 340 334 333 349 363 355 350 352 352 353
304 304 304 304 304 304 304 304 304 305 305 305 305 305 305 305 304 305 305 305 305 305 305 305 306 306 307 307 306 306 307 309 310 309 309 311 312 310 308 310 312 314 314 315 315 315 316 317 317 317 319 322 324 326 328 328 328 327 328 332 335 336 339 339 332 327 329 333 334 330 332 343 348 346 345 343 340 339 338 347 361 358 349 351 353 349 351
305 305 305 305 305 304 305 304 304 305 305 305 305 305 305 305 305 305 305 305 305 305 305 305 306 306 306 306 306 307 307 309 311 310 309 311 312 309 309 313 314 313 315 316 316 315 315 317 317 316 318 322 326 329 330 329 327 326 329 335 338 339 343 344 337 330 333 342 346 341 337 340 340 345 353 354 351 352 357 356 354 349 348 352 351 349 353
305 305 305 305 305 305 305 305 305 305 305 305 305 305 305 305 305 305 305 305 305 305 305 305 306 306 306 306 306 307 307 308 309 310 309 309 310 310 311 313 312 311 315 316 316 317 317 318 320 320 321 325 328 331 331 329 328 328 332 338 339 339 343 345 341 338 340 342 342 340 340 342 341 343 355 360 360 361 360 352 347 348 349 351 352 352 353
305 305 305 305 305 305 305 305 305 305 305 305 305 304 305 305 305 305 305 305 305 305 305 305 306 306 306 306 306 306 307 307 307 308 307 308 309 309 310 310 309 311 315 316 316 317 317 318 320 322 322 325 328 329 330 329 329 330 333 338 339 338 338 340 340 341 344 343 341 340 341 343 343 344 351 354 351 350 349 346 346 347 346 347 351 352 352
304 304 304 304 304 304 305 305 305 305 305 305 305 305 305 305 305 305 305 305 305 305 306 306 306 306 306 307 307 307 308 307 307 307 307 307 308 308 308 309 309 312 315 316 317 318 317 316 319 321 322 324 326 328 329 330 331 331 332 333 335 334 334 338 340 340 343 344 344 343 342 341 342 344 347 347 344 342 343 342 341 339 338 339 342 345 349
304 304 304 304 304 304 304 305 305 305 305 305 304 304 304 304 305 305 305 305 305 306 306 306 306 307 307 307 308 308 308 308 308 307 307 308 308 308 309 309 309 312 315 316 317 318 317 316 318 320 322 324 325 326 329 331 331 330 331 332 332 332 333 336 338 339 341 345 345 345 344 341 340 341 343 343 340 338 337 337 335 334 333 333 333 337 341
304 304 304 304 305 305 305 305 305 304 304 304 304 304 304 305 305 305 305 305 306 306 306 306 306 306 307 307 307 308 308 308 308 308 308 308 308 308 308 309 309 311 315 316 317 319 318 317 317 319 321 322 324 325 327 329 329 329 330 332 333 334 334 336 337 338 340 344 344 344 344 340 336 338 342 341 337 336 335 333 332 331 330 330 330 330 332
304 304 304 304 304 305 305 304 304 304 304 304 303 304 305 305 305 305 306 306 306 306 306 305 306 306 307 307 307 308 307 307 307 308 307 308 308 308 308 309 309 310 313 315 315 318 320 319 318 319 320 322 324 325 326 327 328 329 330 331 331 333 335 336 337 337 339 342 342 342 345 342 336 336 340 339 334 332 332 330 329 330 330 329 328 326 327
304 304 304 304 304 305 305 304 304 304 304 303 303 304 305 305 305 306 306 306 306 306 306 306 306 306 307 307 307 307 307 307 307 308 307 307 308 308 308 309 309 310 311 312 312 315 318 319 318 318 319 321 324 326 328 328 328 330 331 331 331 333 335 336 337 337 340 342 341 341 344 344 339 336 337 337 334 331 330 330 330 330 331 330 327 324 324
303 304 304 304 304 304 304 304 304 304 303 303 303 304 305 305 306 306 306 305 306 306 306 306 306 305 306 307 307 307 308 308 308 308 307 307 308 309 308 309 310 310 310 311 312 314 317 319 318 317 318 320 322 326 329 330 329 330 332 331 331 332 334 334 335 336 338 338 337 339 342 342 340 337 335 335 333 331 330 330 330 330 330 329 326 324 323
303 304 304 304 304 304 304 304 304 304 303 303 304 305 305 306 306 306 306 306 306 306 306 306 305 306 307 307 307 307 308 308 308 308 308 307 307 308 308 309 310 310 310 311 313 315 318 319 318 317 318 319 321 325 329 329 330 332 332 330 330 331 331 332 333 334 335 335 336 338 339 339 338 337 334 333 333 331 330 329 328 328 328 326 325 324 324
304 304 304 304 303 304 303 303 303 303 303 303 304 305 305 306 306 305 306 306 305 305 306 306 306 306 306 306 307 308 309 310 310 309 308 308 308 307 308 309 310 310 311 312 313 315 318 320 318 316 317 318 320 325 329 329 330 331 330 329 330 330 331 331 331 333 334 335 335 337 338 337 337 336 334 334 333 331 330 330 328 327 326 325 325 325 325
305 305 305 304 304 303 303 303 303 303 303 304 304 305 306 307 307 306 306 306 305 305 305 306 306 306 306 307 308 309 311 312 312 310 309 308 308 308 307 308 310 310 311 314 314 315 319 320 318 317 318 318 321 326 327 327 329 331 329 329 329 330 330 330 330 331 332 334 334 335 335 335 336 335 334 333 331 330 330 331 330 328 327 325 324 324 325
305 305 305 304 304 304 304 303 303 303 304 304 304 304 305 306 306 306 305 305 304 304 305 306 306 307 307 308 308 309 311 312 312 312 311 310 309 309 308 308 309 309 312 318 320 320 319 318 317 318 318 319 321 326 327 327 329 330 328 328 329 329 329 329 329 329 331 332 334 335 334 333 332 332 332 331 330 328 327 327 328 328 327 326 326 325 323
305 305 304 304 304 304 304 304 304 304 304 304 304 304 304 304 305 305 304 304 304 305 306 307 307 308 308 308 308 309 312 312 312 313 315 313 310 309 308 308 309 309 312 318 322 322 319 317 317 319 320 320 322 325 326 328 329 328 327 328 328 328 328 328 328 329 330 331 334 335 333 330 329 329 329 329 327 325 324 324 325 326 327 326 327 326 324
305 304 304 304 304 305 305 305 305 305 305 305 306 306 306 306 306 306 305 305 306 307 307 307 307 308 308 308 310 311 313 314 313 314 315 315 312 312 313 312 310 311 314 316 318 319 318 317 318 320 322 323 324 325 326 327 327 326 326 327 327 327 328 328 328 328 328 331 334 333 331 330 330 330 329 327 324 323 323 323 324 326 327 327 327 326 325
305 305 305 305 305 305 306 306 306 307 307 307 308 308 308 307 307 306 305 305 306 308 308 308 308 309 309 310 312 313 313 315 315 314 315 316 315 316 319 318 314 315 317 318 318 318 319 318 319 321 323 324 324 326 328 327 326 325 326 326 326 327 327 327 327 327 327 329 332 331 330 330 331 330 328 325 323 323 324 325 325 326 325 327 328 328 327
307 306 306 306 307 308 308 309 309 308 308 308 309 309 309 307 307 306 307 307 307 308 309 308 309 310 310 311 312 313 314 316 317 316 316 318 318 318 319 320 319 319 319 318 319 320 320 319 319 321 324 325 325 326 327 326 324 324 325 325 325 326 325 325 327 327 326 326 328 329 329 329 330 329 328 327 326 325 326 327 328 327 326 326 328 329 330
308 308 308 309 310 311 311 311 310 310 309 309 309 309 308 307 307 308 308 308 308 308 308 309 309 309 309 310 312 313 314 317 317 317 317 319 320 320 319 319 320 320 319 318 319 321 321 320 320 322 324 325 325 325 325 324 322 322 323 323 324 325 325 325 326 326 326 326 326 326 327 327 327 327 328 328 327 327 327 328 329 328 327 327 327 329 330
310 310 310 311 311 312 311 311 311 311 310 309 309 309 309 309 309 310 310 310 310 309 308 308 309 309 309 310 311 312 314 317 317 317 317 319 319 319 318 318 319 320 319 318 319 321 321 320 321 322 323 324 324 323 324 323 322 321 322 323 324 324 325 326 326 326 326 327 327 327 326 326 326 326 327 327 327 327 328 328 329 328 328 328 329 330 331
311 312 312 312 312 312 311 311 311 311 310 309 309 309 310 311 310 310 310 310 310 310 310 310 310 310 311 312 313 312 313 316 317 317 318 319 318 318 317 317 318 319 318 317 318 319 318 318 320 322 323 324 323 323 323 323 322 322 323 323 324 325 325 326 326 326 326 326 327 326 325 325 325 325 326 327 328 328 327 327 327 327 328 329 330 331 331
312 312 312 312 312 311 311 311 311 311 312 311 310 310 312 311 310 311 312 311 310 311 311 311 311 312 312 314 315 314 314 316 318 319 319 320 320 320 319 318 317 318 318 317 318 319 318 319 320 321 322 324 324 323 323 322 322 322 323 324 325 325 325 325 325 325 325 325 325 326 326 324 323 323 325 327 328 330 329 327 327 329 329 329 329 330 330
310 310 310 310 309 309 309 310 311 312 314 314 313 312 313 312 312 313 314 313 313 313 312 312 313 315 315 316 316 316 316 318 320 319 319 320 321 321 320 319 319 319 319 317 318 320 321 320 319 320 322 323 322 322 322 322 322 323 324 325 325 325 325 325 324 324 325 325 326 327 326 324 324 324 326 326 328 329 328 327 328 330 330 329 328 327 327
309 308 308 308 308 309 310 312 313 314 314 314 313 313 312 313 315 317 316 315 316 317 315 314 317 319 319 318 318 318 319 320 320 319 319 321 322 322 321 319 318 319 320 319 320 322 322 319 319 321 323 322 321 321 323 323 324 325 325 326 326 325 325 325 324 324 324 326 328 328 326 325 326 327 327 327 327 328 327 327 328 328 328 328 327 327 326
311 310 310 310 311 311 312 313 314 314 312 311 312 313 314 314 316 318 318 316 317 319 318 317 319 321 319 318 318 320 320 320 320 321 322 322 322 322 320 318 317 319 320 321 322 322 321 320 321 323 323 322 321 323 324 324 324 325 325 325 325 325 325 324 324 324 324 325 327 326 325 325 325 325 325 325 326 326 326 327 328 327 327 327 327 327 327
312 312 312 312 312 312 312 313 313 312 312 311 312 314 317 317 317 318 318 317 317 319 319 318 320 321 321 319 320 321 322 321 321 322 323 323 323 322 319 318 320 322 322 321 321 320 320 321 323 323 323 323 323 324 326 325 324 324 324 324 324 324 324 324 324 324 324 325 325 325 325 325 324 323 324 324 325 325 326 326 326 326 326 326 327 328 328
314 314 312 311 311 312 313 313 312 311 313 314 314 315 317 318 317 318 318 317 317 318 320 320 321 322 322 322 322 323 324 324 323 323 323 324 324 322 320 320 323 324 322 320 320 319 320 323 324 324 324 324 324 325 326 326 324 323 323 322 322 323 324 325 325 324 324 324 324 324 324 324 324 323 324 324 324 324 325 325 325 326 326 326 327 327 327
316 314 312 312 312 312 313 314 314 314 316 318 317 317 318 319 318 318 318 317 318 319 320 321 321 320 321 323 324 324 325 325 324 324 325 326 324 322 322 323 324 323 322 321 321 321 322 324 324 324 324 324 324 324 326 326 325 324 324 324 324 324 324 324 325 325 324 324 323 324 324 324 324 324 324 324 323 324 324 324 325 325 325 326 327 327 327
316 314 313 314 314 314 316 317 318 318 319 319 319 319 320 319 319 319 317 317 318 319 321 322 322 320 320 322 324 324 324 325 325 325 327 325 324 323 324 324 323 322 322 322 322 323 323 324 324 324 324 324 323 324 326 327 327 328 329 328 327 325 323 323 324 324 324 324 324 325 325 324 323 323 323 323 323 323 324 324 324 324 324 324 324 324 325
317 315 314 315 314 316 318 320 319 319 321 321 319 319 321 322 321 320 319 319 320 321 322 323 323 323 322 323 324 324 325 325 325 325 325 324 323 324 325 323 322 322 322 323 323 323 324 324 324 324 324 324 323 325 326 326 326 327 327 326 325 324 323 323 324 324 324 324 325 326 326 324 323 323 323 323 323 323 323 323 323 322 322 322 322 321 322
316 315 315 316 316 317 319 320 320 320 322 321 320 320 321 322 322 320 319 319 321 322 322 322 323 323 323 323 323 324 325 325 324 323 324 324 324 325 325 323 322 322 322 323 323 324 323 323 324 324 325 324 324 324 325 325 324 324 324 323 323 323 324 323 324 324 323 323 324 325 325 323 322 322 323 324 324 323 321 321 321 321 321 321 321 321 321
313 313 314 317 318 317 316 317 319 320 321 322 321 321 322 323 323 322 321 322 323 323 323 323 323 322 321 321 321 322 323 323 322 323 324 324 325 325 324 323 323 322 322 323 323 323 323 323 323 323 324 325 324 324 324 324 324 323 323 324 324 323 322 322 323 323 323 322 323 323 323 322 322 322 322 323 322 321 319 320 320 320 320 320 320 320 320
312 313 314 316 317 316 315 316 318 320 322 323 322 321 322 323 323 323 324 326 325 323 322 322 321 319 320 321 322 322 321 321 321 322 322 323 324 324 323 323 323 323 323 323 323 323 323 323 323 323 324 324 324 324 324 325 324 324 324 324 324 323 322 321 321 321 321 321 321 322 322 322 322 321 321 320 320 319 320 321 321 320 319 319 319 318 318
313 315 315 315 315 315 316 316 317 319 323 325 324 322 322 322 321 322 324 324 322 320 320 321 320 320 322 323 323 321 320 320 321 321 321 322 323 323 323 322 322 323 323 323 323 323 324 324 323 323 324 324 324 324 325 326 326 326 325 324 323 323 323 323 321 321 320 320 320 320 321 321 320 320 319 319 320 322 323 321 320 320 320 319 318 318 318
Wind_Speed
26 26 26 26 25 24 23 22 22 22 23 20 18 15 9 6 8 20 35 36 23 9 5 6 6 7 10 13 15 14 12 12 12 13 14 13 11 11 11 13 13 12 11 13 14 12 10 13 13 12 10 9 10 13 15 15 17 15 10 10 14 10 6 6 6 6 9 11 9 17 20 17 12 11 11 10 9 8 7 5 3 4 6 5 5 6 7
26 26 27 26 25 23 22 21 21 20 19 17 16 10 5 6 8 16 28 28 14 6 5 5 6 8 11 13 15 14 13 13 13 14 13 11 10 10 11 13 13 13 13 14 15 14 11 12 13 13 11 9 9 12 17 17 14 11 9 7 9 9 7 6 5 5 7 9 7 10 17 15 9 8 11 13 14 12 9 7 3 4 7 8 5 5 6
27 26 26 26 25 24 22 21 19 19 17 15 13 7 4 7 6 7 16 20 10 5 6 6 7 10 12 15 16 14 11 11 12 13 13 12 10 9 10 13 14 13 12 12 16 15 12 12 12 12 11 11 12 12 10 14 15 11 13 14 10 8 9 8 8 8 9 9 7 5 9 11 8 8 12 16 18 16 11 6 5 6 8 10 8 6 5
27 27 26 25 25 24 23 21 18 18 16 14 12 8 5 5 6 5 8 10 6 4 6 7 7 8 9 10 11 12 11 10 13 15 12 11 11 11 9 12 15 13 14 15 13 12 13 12 10 10 11 10 9 16 21 16 15 18 17 17 10 6 8 11 13 12 9 8 7 4 4 8 12 14 15 14 16 18 12 6 7 6 4 6 9 9 8
27 27 26 25 24 23 23 22 19 17 15 13 11 8 4 3 4 6 5 5 6 6 7 7 7 8 9 6 7 13 14 11 13 12 9 9 12 11 9 11 13 13 16 15 12 14 16 14 12 12 13 14 15 19 19 12 18 28 19 15 11 5 7 13 18 17 13 9 7 8 9 9 13 17 17 16 15 16 14 11 11 7 4 6 8 7 10
28 27 26 25 24 23 22 21 20 18 15 13 9 4 4 4 4 6 7 6 6 7 9 11 12 13 12 8 8 14 14 12 11 9 8 10 10 8 7 9 12 14 16 12 11 15 14 10 13 16 15 16 18 19 17 11 17 26 17 9 8 4 6 11 16 18 19 16 12 12 13 12 12 16 18 18 17 17 16 14 13 9 6 9 8 5 7
28 27 26 25 24 23 22 20 20 19 16 12 9 4 4 5 5 6 7 6 7 10 12 14 15 15 13 8 8 13 14 13 11 9 9 10 7 5 10 11 12 14 14 10 8 11 11 10 12 14 16 16 13 13 15 12 14 18 16 10 5 3 5 8 12 14 18 19 18 17 16 14 12 13 16 18 19 20 18 14 11 11 10 10 10 10 9
28 27 26 26 24 22 22 20 18 19 16 12 8 6 5 5 4 4 5 5 7 10 11 12 11 11 10 8 8 10 13 15 13 9 8 10 8 5 9 13 13 12 12 11 9 10 11 13 14 14 15 14 10 7 8 10 15 18 14 11 10 7 5 6 7 7 11 17 20 20 19 16 14 12 13 17 19 20 19 16 12 10 9 10 10 10 11
28 27 26 25 24 22 21 20 18 17 14 10 7 6 9 9 5 3 3 5 7 7 8 8 8 7 7 7 7 8 11 14 15 12 9 10 11 8 8 11 11 9 10 10 12 14 14 14 16 16 14 12 10 8 8 11 16 16 12 10 12 10 4 5 4 2 5 10 17 21 20 17 17 18 16 16 16 14 13 14 14 12 10 8 7 7 8
28 27 26 24 23 22 20 19 17 15 12 10 6 5 10 10 4 0 1 5 6 6 7 8 8 7 5 6 9 10 11 13 14 11 7 8 11 11 9 8 7 7 9 10 12 14 16 16 16 15 15 15 15 14 14 16 14 12 12 10 10 10 6 4 5 3 3 4 7 13 15 14 16 18 16 11 9 11 11 11 13 16 13 7 6 7 7
27 26 26 25 23 21 20 18 17 14 13 13 9 7 10 9 4 1 2 4 5 6 7 7 7 7 8 9 11 11 13 15 13 8 7 9 11 10 9 8 7 6 7 10 12 12 14 17 16 14 15 17 18 17 18 19 16 13 12 10 8 11 9 4 5 4 3 4 5 6 8 11 11 10 11 11 8 9 10 8 9 12 11 10 9 7 5
26 25 25 24 22 21 19 17 16 15 14 15 13 13 15 10 4 2 2 4 6 6 6 7 9 10 13 14 13 12 14 15 13 10 11 13 14 12 9 8 8 7 7 11 12 9 11 16 16 14 15 16 17 19 20 20 17 14 12 11 11 10 9 4 3 4 4 3 4 6 7 8 6 5 9 11 10 8 8 9 9 7 7 10 11 8 7
27 24 23 22 21 20 18 16 15 14 14 13 13 16 17 10 3 2 2 4 6 6 7 10 13 14 15 15 13 13 15 14 12 12 11 11 15 15 10 7 9 10 10 11 6 5 9 12 12 11 12 12 13 16 18 18 18 17 14 13 11 8 6 5 2 4 4 3 4 6 4 4 5 3 4 3 3 4 4 5 7 5 4 1 1 1 1
25 23 22 21 20 19 17 14 13 13 13 12 13 16 17 13 7 3 2 3 6 7 7 9 11 13 14 13 11 11 13 13 11 10 9 9 13 14 11 9 10 11 11 8 1 4 4 6 7 7 7 8 9 11 12 12 13 16 16 13 9 7 5 3 2 2 5 5 4 4 3 4 6 4 1 2 2 1 2 1 3 5 7 7 5 6 7
22 20 20 20 18 16 14 13 12 12 12 12 13 15 16 15 12 7 2 2 5 7 6 7 8 11 12 12 10 9 9 9 8 8 9 9 9 11 12 10 10 13 13 6 3 2 2 2 4 5 3 4 5 6 7 7 7 10 13 10 8 7 4 1 1 1 1 4 4 4 4 5 5 2 2 3 4 4 7 4 2 5 7 8 7 7 8
20 19 19 18 16 14 13 13 12 12 12 11 12 14 16 14 13 11 5 2 4 5 5 6 9 12 11 11 12 10 7 6 6 6 7 7 9 11 12 11 10 12 13 6 2 2 1 2 3 4 2 3 4 5 6 6 5 8 11 9 8 9 4 1 1 1 1 2 5 5 5 4 3 2 1 4 6 5 6 5 3 5 5 7 9 9 9
19 18 18 17 15 13 13 13 12 12 11 11 11 14 14 12 11 11 6 3 4 6 7 10 12 11 8 7 8 7 3 4 6 5 4 6 9 10 10 11 10 8 8 6 1 3 1 3 3 3 3 3 4 5 6 6 5 7 11 13 11 7 3 2 2 1 2 2 2 3 2 2 1 1 2 5 7 6 5 1 3 4 5 7 9 10 9
18 17 17 16 15 14 14 13 13 12 11 10 11 14 16 14 12 10 5 3 5 6 7 11 11 8 6 6 7 6 4 4 5 4 5 6 5 6 8 9 7 5 6 5 4 2 2 2 3 3 4 3 3 4 5 5 4 5 8 9 8 6 4 3 3 3 2 3 1 2 1 1 2 4 4 3 5 6 4 5 5 2 5 7 10 11 9
17 17 16 16 15 15 14 13 13 12 10 9 9 12 15 14 11 9 6 3 4 6 7 10 12 11 10 9 8 7 6 4 1 1 6 5 2 6 10 7 4 4 3 2 4 3 3 4 3 3 3 2 2 3 4 4 4 5 7 6 5 6 5 3 3 5 2 3 2 2 1 1 0 4 7 7 3 3 3 4 2 3 7 8 9 10 8
18 17 16 16 15 14 13 12 12 11 10 9 9 12 16 15 12 11 9 5 4 7 10 12 14 15 13 11 9 8 7 5 1 2 4 5 3 7 7 3 2 4 2 1 3 3 3 3 3 3 4 3 1 2 3 4 5 4 3 3 3 3 4 3 3 4 2 2 3 2 1 3 1 3 5 5 2 4 3 1 5 6 7 8 8 9 8
18 17 16 15 14 13 12 12 11 10 10 9 9 12 15 15 13 11 9 7 5 5 7 10 14 16 16 15 14 13 11 9 6 4 5 5 2 3 3 3 4 4 1 1 2 2 2 1 1 2 2 1 1 1 2 4 4 2 1 2 1 2 2 2 3 4 2 2 1 1 5 10 6 2 2 1 2 1 1 4 6 6 6 6 7 9 8
17 16 16 15 14 13 13 12 12 11 11 11 10 12 14 15 13 11 8 8 8 9 12 17 20 22 25 26 25 24 21 19 17 13 9 5 3 3 5 7 6 3 1 0 1 2 2 2 2 2 2 2 1 0 1 1 2 2 2 1 0 3 2 2 2 1 1 3 4 5 11 15 9 3 6 4 3 5 6 7 7 6 6 6 7 8 9
17 16 16 15 14 14 13 13 13 12 12 11 11 12 14 15 15 14 10 7 9 12 17 21 20 19 21 24 26 27 27 25 24 21 16 9 5 5 6 7 5 1 2 1 0 1 3 3 3 3 2 2 2 1 1 1 2 3 3 1 1 2 1 4 3 2 3 4 3 5 11 16 14 5 4 8 8 8 9 10 9 8 8 8 8 9 11
17 17 16 15 15 15 14 14 14 13 13 12 11 13 16 17 17 14 10 6 5 6 10 12 10 9 12 16 19 20 20 21 22 22 21 15 8 5 5 5 3 0 2 3 3 2 1 3 3 3 2 2 1 1 1 1 0 2 3 2 0 2 1 3 2 4 4 3 3 7 10 15 16 8 2 11 13 10 10 11 9 8 11 11 10 11 12
18 18 17 16 16 15 15 15 14 14 14 14 13 14 15 16 16 12 7 5 3 4 6 7 9 13 16 18 18 16 14 15 16 17 19 18 14 10 8 6 5 2 3 5 4 3 1 2 3 3 3 2 1 1 0 1 1 2 2 2 2 3 4 4 3 3 3 3 3 6 8 13 13 10 6 8 13 13 12 11 10 11 13 13 13 12 12
19 18 17 17 17 16 16 16 15 15 15 15 15 15 16 17 17 13 8 6 4 4 5 6 9 13 15 15 17 18 17 17 18 17 18 19 20 18 13 9 8 5 2 3 4 2 2 1 2 4 4 2 1 0 1 1 1 1 1 1 2 4 5 4 3 4 4 2 3 5 7 10 12 14 11 8 8 13 14 12 13 14 14 14 14 14 12
19 19 18 17 17 16 16 16 16 16 16 16 16 16 17 19 19 16 13 9 4 3 5 5 6 11 15 18 25 27 22 20 20 20 20 22 23 22 16 9 7 5 3 2 2 2 2 2 2 4 4 2 1 1 2 2 1 1 2 2 2 3 3 2 2 3 3 1 3 4 4 5 7 10 10 10 8 10 14 14 14 14 12 12 14 13 13
19 19 18 17 17 17 16 16 16 17 17 18 17 17 19 21 21 19 18 14 8 3 5 6 7 11 15 17 22 23 18 16 18 19 20 20 21 20 15 9 5 4 3 3 3 2 2 2 2 3 3 2 1 2 1 1 1 2 2 1 1 2 2 2 2 3 4 5 5 3 1 2 5 8 9 8 7 9 13 13 13 13 11 11 13 12 12
20 19 19 18 18 17 17 16 16 16 16 17 17 16 16 16 15 14 12 12 10 5 4 6 7 8 10 13 18 21 20 18 18 19 18 16 15 15 11 7 5 5 4 3 3 2 2 2 2 3 3 1 1 2 1 0 1 1 1 1 1 2 3 4 4 5 8 8 4 1 0 1 3 6 8 8 7 8 11 11 11 12 12 12 12 12 11
21 20 19 19 19 18 17 17 16 15 15 15 13 11 8 6 5 4 2 3 4 2 3 5 6 5 7 12 16 16 16 17 17 16 15 13 10 9 9 7 6 5 4 3 3 2 1 0 1 4 4 4 2 2 1 1 1 1 0 1 2 2 4 5 4 6 8 6 3 4 2 1 1 3 6 7 7 7 9 9 10 10 11 11 12 11 10
23 22 21 20 19 19 18 17 16 15 14 11 8 4 2 1 1 3 3 2 7 6 4 5 6 6 6 8 9 8 9 12 14 12 10 10 9 9 9 7 4 4 4 3 2 2 1 1 1 4 4 3 2 2 0 0 2 1 0 2 2 2 4 5 5 6 8 5 4 6 4 2 1 2 5 7 7 7 7 8 9 10 11 12 11 10 9
25 24 23 22 21 20 18 17 15 13 12 11 10 10 10 11 12 12 12 16 15 9 4 4 5 5 3 4 8 11 11 11 9 5 3 5 5 6 6 5 3 4 4 2 1 1 0 2 3 5 3 1 2 2 1 1 2 1 2 3 2 2 4 5 6 7 7 3 3 6 5 4 2 3 5 7 7 7 7 7 7 8 9 10 9 10 10
26 25 24 23 22 20 18 17 15 14 13 14 16 20 20 20 19 17 16 16 13 6 3 3 4 4 4 5 8 10 10 6 3 1 1 2 3 3 5 4 4 3 2 3 2 0 1 0 4 4 1 1 1 2 1 2 2 1 1 2 2 3 3 5 6 6 5 3 1 3 6 5 4 4 6 7 7 6 6 6 6 6 7 9 9 9 9
27 26 25 22 19 17 17 17 16 14 11 11 13 16 15 12 9 7 7 8 7 5 3 2 3 4 5 5 5 5 6 5 2 1 1 1 2 2 3 2 3 3 2 1 1 1 1 1 3 2 0 1 2 2 2 1 1 2 2 2 3 3 2 3 5 5 4 4 4 4 7 8 6 5 5 6 6 5 5 6 6 6 7 8 8 7 7
27 24 20 17 16 16 17 15 12 9 8 9 11 11 10 8 7 6 7 8 5 3 2 2 3 3 4 4 4 4 5 4 2 2 2 2 3 2 2 1 1 1 0 1 1 1 1 1 1 1 1 2 2 2 2 2 3 3 3 4 4 4 2 2 4 5 5 5 4 4 5 7 7 6 5 6 6 6 5 5 5 7 8 7 6 6 5
21 18 16 15 15 14 12 8 7 7 6 7 9 9 9 9 8 8 9 11 8 4 3 2 3 3 3 3 3 3 4 3 2 1 2 1 2 2 1 1 1 1 1 1 1 2 1 1 1 2 2 1 1 0 1 4 5 5 5 4 4 4 3 2 4 4 5 7 7 7 6 5 5 5 5 6 6 5 5 5 5 6 7 6 5 5 4
16 17 17 16 12 8 5 4 7 8 7 8 9 9 9 8 7 7 8 9 9 7 3 2 4 4 4 3 3 1 2 2 1 1 1 0 1 1 1 2 1 1 1 1 1 1 0 0 1 2 2 0 2 3 4 4 5 5 5 4 4 3 3 2 4 3 3 7 9 10 9 8 8 6 4 5 5 4 5 5 4 4 5 5 4 3 3
18 18 14 9 4 3 3 3 4 6 8 8 7 6 4 3 3 3 3 3 4 5 3 3 4 4 3 4 4 2 2 1 1 1 1 1 1 0 1 1 1 2 1 1 1 1 0 0 1 1 2 2 4 5 5 4 4 4 4 4 3 3 3 3 4 3 3 6 7 8 8 8 9 8 6 5 4 3 3 4 4 5 5 4 3 3 2
15 13 8 4 3 3 6 6 7 8 7 5 4 2 2 2 1 1 2 2 2 2 3 3 4 4 4 5 5 3 2 2 2 1 2 2 1 2 2 1 1 1 1 1 1 1 1 1 1 1 1 3 4 4 4 4 4 4 4 3 3 2 3 3 4 4 4 4 5 5 6 7 7 6 6 7 7 5 4 5 5 4 4 3 3 2 2
12 8 4 2 3 8 13 14 13 11 6 3 3 1 1 2 1 1 1 2 2 2 2 3 3 3 5 6 5 3 3 3 1 1 2 1 1 1 2 2 1 2 2 1 1 1 1 1 0 1 2 2 3 4 4 4 5 4 3 2 3 3 3 3 3 3 3 4 5 5 5 6 7 6 5 5 6 6 6 6 6 5 5 5 5 4 3
10 6 4 6 12 19 22 18 12 8 4 2 1 2 2 2 1 1 2 2 2 2 2 2 2 3 4 6 5 3 3 2 1 1 1 1 1 1 2 2 1 1 1 1 1 1 1 1 2 2 1 2 2 3 3 4 3 1 2 3 4 3 3 3 4 3 4 4 4 4 5 6 7 6 5 5 5 5 5 6 6 6 6 6 6 7 8
10 11 13 16 18 19 16 9 4 2 1 1 1 2 2 1 1 1 1 2 2 1 1 2 3 2 2 2 3 3 2 2 2 1 1 1 1 1 1 1 1 1 1 1 1 1 0 2 3 2 2 2 1 2 2 2 2 1 2 3 3 3 2 3 4 3 4 4 4 4 5 6 6 6 6 6 6 6 6 7 7 7 9 10 11 11 11
11 11 12 12 9 7 4 2 1 1 1 1 2 2 2 2 1 1 1 1 1 1 1 1 2 1 1 0 1 2 2 1 1 1 1 1 1 1 1 2 2 2 1 0 0 1 2 3 3 2 1 1 1 1 1 2 2 2 2 1 1 2 1 3 3 3 4 4 4 5 6 6 6 9 10 10 8 7 7 8 9 10 12 14 14 14 15
10 5 3 3 2 1 2 2 1 1 1 2 2 2 3 3 3 3 3 2 2 3 2 2 2 3 1 1 1 1 1 1 1 1 1 0 1 1 2 2 1 1 1 1 2 3 3 3 2 1 2 3 3 3 3 2 2 2 3 3 2 1 2 4 4 4 3 4 4 5 5 5 7 10 12 12 11 8 7 8 11 13 14 14 14 14 16
6 2 1 2 2 2 2 2 2 1 2 2 1 2 3 5 5 5 4 2 3 5 5 4 3 3 2 1 2 1 1 1 1 0 1 0 1 2 2 1 1 1 1 2 3 3 3 3 3 3 4 4 3 3 3 4 4 4 6 6 5 3 4 6 6 5 5 6 7 7 7 7 7 8 9 11 13 12 10 9 11 12 13 12 11 12 15
3 1 1 2 3 2 2 2 3 2 2 3 3 4 4 5 6 6 4 2 3 5 6 5 4 3 2 1 1 0 0 0 0 1 1 0 1 2 1 1 1 1 2 3 4 3 3 3 4 4 3 4 4 3 3 3 3 4 4 3 2 3 7 8 8 7 8 8 8 7 7 7 7 7 8 10 12 13 13 12 13 13 11 10 9 10 12
3 2 1 0 2 2 2 1 2 2 2 4 6 7 6 5 5 5 4 3 4 6 5 4 3 2 1 1 1 1 0 0 1 1 1 1 1 0 0 1 2 3 3 4 5 4 3 4 5 4 3 3 4 4 3 3 3 2 2 1 2 6 9 9 7 7 8 8 7 7 6 6 7 7 7 8 9 11 13 14 14 14 13 12 13 14 13
3 2 0 1 1 1 1 2 3 4 3 4 6 6 5 3 4 5 5 3 4 5 5 3 2 1 1 0 0 1 1 0 1 1 1 0 1 1 1 3 3 3 3 4 5 5 4 5 5 4 4 4 4 4 4 4 4 3 2 3 5 6 7 7 7 8 7 6 5 5 4 5 6 7 7 6 7 10 12 13 13 13 13 13 14 16 16
4 2 0 0 1 1 1 1 1 4 6 6 6 6 4 4 5 6 6 5 4 5 5 4 2 1 2 1 1 1 2 2 2 2 2 2 2 2 2 4 4 3 3 3 4 4 5 5 5 5 5 5 3 3 3 3 3 4 6 7 6 6 6 7 7 7 7 6 5 5 6 7 7 7 6 6 6 9 11 12 11 12 12 12 12 13 14
3 1 0 2 2 3 4 3 3 6 8 7 6 7 6 5 4 3 2 3 4 4 4 2 1 1 2 2 2 2 3 3 3 3 3 4 4 3 3 5 4 3 3 3 3 4 5 4 4 6 7 5 3 2 2 4 5 7 7 7 6 5 7 9 8 7 6 7 6 5 5 6 6 5 6 7 9 11 13 14 12 11 12 12 13 13 13
2 1 2 4 5 6 6 4 4 5 6 7 8 7 7 7 7 5 3 3 4 4 5 4 2 2 3 3 3 3 3 2 3 4 4 4 4 3 5 6 5 4 4 5 4 4 4 4 4 5 6 5 5 5 6 7 7 7 6 7 7 8 10 11 10 7 8 10 10 8 7 8 9 9 10 14 15 14 13 14 16 15 14 12 11 11 12
1 2 3 4 5 5 6 5 4 2 2 4 6 7 6 7 9 9 7 5 6 7 7 5 3 2 3 3 3 3 3 3 4 5 5 4 3 4 6 7 7 5 5 4 4 3 3 4 4 4 4 5 6 6 6 6 6 6 6 7 8 8 8 9 8 8 10 13 14 14 14 16 18 18 18 17 15 10 7 10 15 19 19 17 15 12 12
Wind_Direction
322 322 323 323 324 324 323 323 325 329 333 335 333 328 312 285 287 289 292 299 308 310 280 273 260 249 256 259 262 265 269 272 274 276 276 275 275 272 272 272 275 278 277 281 283 278 278 280 279 286 274 237 215 212 207 199 196 198 210 200 185 189 207 213 230 259 274 269 222 184 181 188 199 204 204 213 221 218 222 226 194 196 214 195 195 238 245
322 321 321 321 321 321 321 321 323 327 331 330 327 322 305 298 291 288 292 293 286 270 273 265 258 266 268 267 269 270 270 274 276 276 276 279 278 273 275 278 272 271 276 276 275 276 276 275 279 284 287 297 290 248 218 215 211 195 197 196 178 186 198 190 198 229 251 266 251 194 184 188 200 203 195 203 214 217 228 235 206 203 216 197 189 234 235
323 321 320 319 318 319 318 317 321 325 327 326 322 310 294 303 287 273 297 299 284 248 257 260 264 272 273 274 276 273 271 281 292 300 301 298 303 301 296 308 305 288 291 297 286 278 272 272 277 279 280 291 303 305 279 247 239 220 198 186 181 192 189 182 196 207 213 227 233 202 183 184 197 205 196 198 206 212 221 225 213 224 226 211 207 234 248
323 321 319 317 317 318 315 313 315 318 321 323 316 302 295 305 295 289 305 308 304 292 288 284 278 283 290 292 295 300 306 313 318 320 312 306 323 326 319 338 343 337 347 344 317 305 310 303 294 293 295 293 304 335 339 320 296 283 242 201 186 197 187 188 201 204 208 222 232 239 204 186 191 201 204 200 202 208 211 216 223 217 205 223 224 223 245
323 321 319 317 316 316 313 310 308 309 313 318 313 298 283 280 283 297 318 325 317 314 318 322 324 322 319 315 309 308 310 312 311 308 305 316 335 334 330 353 360 355 355 345 321 329 340 341 344 339 326 328 333 336 335 333 331 321 288 216 191 205 198 192 199 206 211 220 238 244 240 223 196 191 200 207 207 209 208 214 226 211 177 245 248 215 227
322 320 318 317 315 314 311 306 303 302 303 308 310 293 271 275 275 296 309 306 299 305 316 320 320 315 309 305 299 296 294 297 300 303 307 317 333 332 316 338 356 353 349 339 324 335 342 344 352 351 340 337 338 333 328 338 354 344 319 242 192 181 199 194 195 205 213 221 237 239 240 246 219 191 193 202 209 216 219 219 219 208 206 239 239 201 210
320 318 317 316 313 310 309 307 302 298 295 296 293 270 266 281 277 289 298 291 291 300 303 304 305 304 304 310 301 291 287 284 286 294 301 302 315 309 291 308 342 347 342 341 333 333 335 335 342 343 334 331 333 326 322 338 2 353 331 299 266 187 183 194 196 202 207 215 231 241 243 249 240 209 194 196 205 214 223 231 225 213 220 233 228 220 223
318 318 317 315 312 308 307 306 301 295 295 293 279 251 247 267 277 298 309 299 292 295 296 298 300 300 300 295 289 296 301 297 292 287 289 294 297 291 291 306 327 338 338 337 323 315 323 324 324 326 323 322 328 322 315 333 339 333 326 317 297 261 200 179 191 201 203 206 217 233 244 251 256 244 211 200 204 208 212 224 233 231 231 231 224 229 237
317 317 316 314 311 307 305 304 300 297 295 287 271 250 252 263 278 316 318 298 293 297 299 298 293 291 293 294 306 321 317 307 302 295 290 298 301 305 309 309 317 328 324 315 311 314 317 312 309 311 308 301 298 293 294 313 318 314 311 315 306 288 230 153 134 165 219 212 208 217 230 248 261 258 239 214 204 206 208 209 214 224 232 234 226 224 241
315 315 314 313 310 306 303 299 296 294 283 266 260 269 273 280 297 12 261 282 290 291 288 286 282 281 284 293 305 310 304 303 308 307 300 304 308 315 319 307 302 310 303 298 305 309 308 305 300 295 290 286 283 277 279 285 288 291 297 298 299 296 274 179 142 158 221 246 227 216 216 230 245 247 246 237 211 209 216 206 202 209 214 229 235 219 223
313 312 312 311 309 305 302 295 289 286 270 253 250 266 278 289 316 315 268 278 284 286 285 282 280 284 289 291 295 302 304 306 313 314 304 303 301 300 303 302 292 273 264 269 280 290 298 299 294 286 282 283 282 280 282 282 273 269 281 283 283 293 287 230 156 149 181 216 255 257 228 223 233 230 232 248 245 225 228 229 216 208 206 217 220 212 217
310 311 312 311 311 308 304 295 286 279 267 257 254 261 269 281 305 295 271 283 288 290 287 281 284 293 296 294 295 300 302 304 312 310 303 304 297 280 271 275 275 273 262 255 261 295 320 308 300 297 292 287 286 284 284 285 280 273 272 273 278 292 298 273 178 142 139 167 212 246 241 238 245 205 204 231 246 247 254 259 254 246 236 227 215 208 225
311 314 315 313 312 310 304 295 286 280 273 265 255 257 264 271 277 253 252 278 281 279 284 289 290 291 293 296 303 309 305 305 310 307 306 313 304 291 279 262 257 262 256 246 258 342 331 308 305 305 302 301 297 288 285 284 284 283 280 273 271 280 293 292 238 153 146 146 196 223 244 305 297 227 185 211 255 262 278 279 283 320 1 293 217 14 318
312 315 315 313 312 309 303 296 290 285 280 271 260 260 267 268 258 249 260 265 267 277 290 293 290 290 296 304 314 315 309 309 312 310 315 316 301 296 298 291 287 286 267 242 106 30 311 301 317 317 317 320 302 290 292 288 278 278 280 278 278 285 289 305 341 162 169 170 213 251 293 306 275 251 155 51 25 64 116 192 300 8 53 71 62 37 27
315 315 315 314 314 311 305 300 296 290 283 274 266 267 272 270 262 255 249 258 277 287 275 261 277 299 310 313 309 306 308 314 318 314 312 310 303 304 306 305 317 319 301 277 111 89 271 292 306 298 314 317 296 296 306 304 289 279 276 269 265 276 288 2 22 317 169 164 198 251 258 238 233 262 11 20 37 82 110 112 349 3 50 72 77 63 49
323 321 319 317 316 313 308 305 301 295 288 281 274 272 274 274 263 250 243 254 269 274 272 274 292 302 304 302 301 303 311 316 315 311 311 317 319 314 311 313 324 325 315 305 116 110 282 258 265 279 290 301 310 311 302 311 329 316 308 307 289 274 278 2 322 306 49 170 195 217 237 223 184 169 127 61 54 62 79 67 350 329 18 60 75 68 56
329 327 324 323 321 317 314 310 304 300 295 287 282 278 276 278 268 249 235 232 246 257 281 289 291 293 294 297 303 309 318 312 312 311 303 310 314 314 320 322 321 330 336 321 221 140 171 241 258 269 262 276 311 308 304 319 335 330 336 343 331 310 327 23 309 249 107 119 215 224 231 244 246 231 142 102 85 73 72 92 260 295 2 49 71 68 57
334 332 330 329 327 323 320 315 309 306 299 288 286 282 279 284 282 261 233 241 260 256 263 271 276 283 283 282 291 297 296 300 316 315 296 298 311 317 321 319 312 343 8 330 268 186 158 214 250 264 257 263 288 295 305 313 320 343 352 351 342 336 359 25 318 309 65 88 246 241 161 243 299 350 6 41 83 86 116 197 225 316 27 47 62 64 59
336 336 334 331 330 325 322 319 315 312 306 296 292 287 283 289 289 264 234 227 255 257 268 281 286 285 279 277 283 286 285 285 345 336 297 297 326 313 306 303 307 334 359 301 268 248 203 199 221 259 259 250 274 296 298 292 308 357 1 358 357 347 345 0 334 312 354 63 11 335 351 298 304 37 10 6 58 116 191 197 167 55 51 54 59 61 58
335 335 333 330 330 326 323 323 321 318 312 307 301 291 287 292 290 270 250 234 255 272 276 274 270 268 271 275 278 281 284 280 196 165 271 281 327 331 315 311 348 334 322 294 292 273 234 204 195 224 237 224 235 296 294 290 295 315 347 13 18 338 323 339 336 312 319 36 49 77 323 300 291 80 16 12 112 200 246 71 71 59 55 57 56 55 53
334 334 333 331 331 328 326 325 322 319 315 310 305 296 291 293 296 284 258 236 242 275 282 278 276 276 277 279 281 282 282 277 262 253 270 277 298 327 307 296 310 318 323 336 324 308 292 271 221 243 263 242 183 252 310 315 304 281 132 111 36 350 341 331 347 352 356 5 35 53 320 314 312 138 144 241 196 238 351 74 75 56 47 53 59 53 45
338 337 336 335 333 331 329 326 322 319 314 308 305 297 291 293 300 302 282 246 238 252 269 278 282 280 276 276 275 270 266 265 263 263 271 284 267 250 273 289 290 283 116 39 315 322 329 320 306 304 296 269 236 160 62 331 316 9 76 131 95 43 15 263 269 353 307 255 270 312 324 320 321 78 108 103 56 39 56 79 76 57 40 42 58 59 49
340 339 338 337 334 332 329 325 323 320 314 313 309 296 291 294 297 301 300 269 248 257 268 272 273 272 270 269 266 260 255 254 255 254 255 262 263 256 265 277 280 290 91 105 143 350 331 315 307 296 287 278 265 225 142 201 280 347 5 295 165 91 264 247 252 344 318 261 264 336 338 321 308 303 104 93 71 54 61 71 67 60 54 48 49 56 57
338 336 336 335 333 332 330 326 324 321 316 314 309 296 291 292 292 293 292 270 255 276 279 270 263 267 276 279 277 270 259 250 247 246 245 244 248 263 264 262 265 172 138 169 162 119 331 302 299 279 278 296 279 248 193 166 285 353 345 314 346 74 349 287 307 354 342 313 352 6 338 312 304 298 98 91 82 74 69 72 72 65 61 57 50 50 56
334 333 332 330 329 329 329 326 324 321 317 314 310 302 295 291 289 287 276 259 270 298 295 286 276 277 283 287 285 284 280 269 259 252 245 237 233 240 253 259 258 233 165 166 161 136 170 277 295 287 286 306 299 280 9 81 38 17 350 324 333 347 343 340 340 339 312 282 348 357 312 304 329 358 30 74 87 89 80 76 79 72 65 60 54 49 52
332 331 329 328 327 326 326 325 324 321 318 315 312 304 293 287 287 282 269 268 279 265 264 277 285 289 299 303 296 293 293 285 273 262 254 246 238 236 242 254 261 260 214 167 172 169 181 215 267 283 288 293 279 281 266 256 292 324 288 276 281 287 304 324 321 311 296 269 341 352 315 316 357 19 10 5 57 85 84 77 74 70 66 64 59 53 52
329 328 326 325 324 322 323 323 322 321 319 316 313 303 291 286 285 278 268 265 268 268 267 269 290 307 312 305 294 289 284 275 269 261 251 245 238 232 232 236 242 253 264 239 219 215 216 221 253 272 279 279 264 244 230 236 249 257 261 282 301 285 301 339 328 319 335 345 344 349 326 315 351 15 10 354 13 65 78 75 68 64 63 65 65 59 52
324 323 322 320 319 319 319 318 319 319 318 317 314 303 291 284 280 274 265 250 232 243 288 282 290 304 304 296 292 291 283 272 270 265 254 245 235 228 226 227 224 228 236 235 229 224 235 247 268 282 288 288 276 260 227 205 228 240 240 326 6 323 313 337 338 304 288 285 294 318 350 313 330 356 8 357 360 46 68 72 71 70 66 63 66 62 54
319 316 316 316 315 314 312 311 313 314 315 319 318 308 298 286 276 272 265 244 228 235 290 287 282 289 297 302 301 297 290 278 263 251 246 245 237 229 224 214 208 221 231 231 232 240 233 211 237 269 264 202 225 285 281 136 260 261 229 36 354 290 287 306 316 296 282 277 273 252 153 319 331 358 17 10 2 37 62 68 71 74 72 68 68 65 59
311 309 310 311 312 312 310 308 308 308 311 318 316 303 294 282 262 250 217 222 243 277 296 291 293 295 297 296 292 290 298 297 279 253 238 236 236 234 229 209 194 210 233 229 216 229 236 163 268 267 233 189 191 273 304 81 287 256 152 5 333 316 310 315 320 305 294 284 226 187 175 149 307 350 30 28 11 28 56 65 69 76 78 77 76 71 65
307 305 304 304 305 307 307 306 309 311 310 310 308 298 301 294 220 158 144 279 310 316 291 273 289 293 286 285 285 291 302 295 279 259 241 238 236 230 228 220 190 192 215 224 228 241 203 130 252 270 245 214 243 288 28 44 271 254 3 351 340 339 329 326 324 311 301 282 187 158 126 74 308 338 42 39 23 29 51 59 64 74 79 79 80 79 74
306 303 301 300 300 302 303 304 309 309 295 277 263 257 260 268 270 267 271 283 293 298 282 276 290 292 289 297 306 310 302 281 267 262 260 259 248 220 212 218 219 208 190 150 132 287 123 160 233 258 257 245 282 282 212 221 241 254 341 335 334 351 345 341 336 322 309 294 160 134 101 59 28 41 49 37 24 27 43 48 50 63 72 75 77 77 74
309 306 304 303 303 303 301 301 302 299 288 276 268 263 264 270 276 277 279 282 278 257 230 273 284 281 291 302 309 320 326 316 302 348 339 277 266 227 203 199 207 206 157 120 138 213 42 265 257 259 212 161 223 251 246 238 217 155 10 337 334 348 355 350 334 316 309 326 9 116 117 102 80 67 65 60 44 28 34 45 43 50 64 70 71 70 69
313 312 310 308 305 299 297 299 299 292 282 273 269 271 274 276 273 257 242 246 252 243 232 255 271 277 291 293 300 333 349 350 349 358 353 358 339 282 248 190 164 181 171 123 140 164 166 239 269 282 196 177 212 233 241 217 146 109 60 12 353 341 343 344 333 330 352 14 29 95 125 126 112 86 76 79 73 54 45 49 48 55 64 64 64 66 64
321 320 315 309 302 298 298 296 285 267 260 257 258 267 271 266 263 252 220 207 221 262 249 221 242 277 295 294 294 322 336 339 355 353 334 4 24 2 346 34 110 204 231 45 64 212 238 272 298 292 235 196 207 229 209 148 122 103 69 36 16 11 18 351 334 347 14 32 55 97 122 130 125 118 113 109 101 90 77 66 61 65 66 59 55 60 64
330 326 316 310 307 304 301 286 242 223 239 250 248 258 270 271 277 273 241 219 218 244 269 258 243 252 279 297 302 319 330 336 352 321 293 347 28 12 4 47 49 336 346 29 215 240 276 15 340 290 269 206 186 258 102 111 105 85 69 52 29 27 37 350 320 350 34 55 64 67 67 74 87 102 113 111 108 110 105 93 80 76 77 76 70 66 69
327 319 314 316 315 301 280 243 219 223 240 249 251 265 277 276 270 261 242 226 219 218 234 278 260 250 266 281 275 299 330 321 303 297 297 39 50 351 18 61 57 297 272 247 218 228 229 102 234 281 294 130 107 69 61 78 80 68 65 61 38 29 31 340 308 321 60 68 64 61 58 51 45 46 67 85 94 108 111 105 103 101 96 97 99 93 93
323 318 312 307 302 295 282 249 241 257 264 261 262 271 267 241 227 233 228 217 206 198 199 243 252 244 249 257 258 279 316 288 244 228 208 173 156 194 80 92 190 225 260 310 255 221 17 3 262 278 316 42 77 65 49 54 61 55 56 61 43 21 23 14 350 356 68 76 67 66 67 60 46 33 29 39 54 83 110 113 117 116 113 122 139 137 126
333 323 302 259 241 298 307 302 306 307 290 249 223 233 216 179 201 258 224 206 215 204 199 227 239 228 221 241 258 267 245 236 257 240 194 168 158 181 179 171 195 195 193 254 228 155 99 343 288 310 13 35 49 40 24 34 47 34 25 48 55 29 27 34 21 20 50 68 64 69 89 97 88 66 45 33 26 24 44 66 73 76 88 108 119 121 130
345 330 302 282 306 311 309 308 309 308 294 217 175 208 239 193 176 203 209 220 238 228 215 228 239 228 221 233 254 257 222 215 253 256 201 171 155 182 172 151 167 197 200 211 221 185 165 178 43 55 45 28 20 16 18 38 47 20 346 16 57 43 35 44 35 20 35 50 44 42 69 102 113 108 90 66 39 22 27 43 49 47 47 57 65 65 56
344 334 308 303 304 304 304 305 301 291 272 218 205 245 238 216 211 218 226 242 245 230 216 224 239 240 224 217 225 243 243 225 225 247 218 190 171 170 162 158 182 225 186 153 173 206 194 85 69 66 39 17 13 10 23 53 67 14 328 10 41 41 44 56 49 24 20 33 39 36 47 67 77 77 78 76 60 36 31 38 43 44 40 39 46 52 51
314 299 292 295 299 299 299 297 285 260 247 259 276 264 245 248 263 240 230 250 259 236 207 216 238 269 262 206 202 225 239 209 186 203 219 206 176 157 149 138 88 76 118 150 175 199 142 63 64 64 48 37 18 347 16 71 92 75 36 34 23 6 30 61 63 45 29 28 36 44 53 63 68 64 66 70 62 49 44 41 38 36 36 37 40 41 42
312 297 293 296 301 308 317 316 287 289 299 294 301 301 291 287 292 287 274 271 272 254 225 230 249 274 290 185 216 233 227 194 201 218 214 202 156 116 99 65 54 87 142 199 18 47 55 59 66 62 27 32 36 354 16 76 97 104 111 128 249 282 35 68 71 66 46 36 48 60 60 60 63 62 61 60 55 50 48 46 45 44 42 41 42 40 38
314 298 290 287 281 317 359 359 354 358 349 328 319 322 321 320 316 310 313 324 321 313 319 324 307 294 266 189 206 244 236 202 225 242 228 194 131 105 89 68 53 88 128 93 52 50 46 48 60 43 11 32 41 16 3 31 63 75 79 71 50 57 92 89 84 80 64 47 56 67 65 63 69 68 63 57 54 53 50 45 46 50 50 48 46 43 42
296 265 349 343 324 337 13 12 5 351 322 299 288 296 304 305 302 299 304 310 297 297 302 301 295 294 280 169 163 233 265 219 195 285 307 350 64 63 71 102 142 102 68 56 53 50 42 41 45 35 20 24 25 3 358 17 39 54 58 51 37 40 68 72 69 68 61 53 56 60 57 57 63 65 61 57 55 56 57 54 49 49 52 55 52 47 47
277 264 18 355 329 334 1 352 339 335 312 301 303 294 288 297 302 296 287 271 272 286 295 296 296 307 327 45 114 99 282 241 44 348 320 10 56 46 49 166 122 61 48 51 54 55 50 45 43 31 4 355 358 358 2 16 40 72 80 69 39 58 70 69 64 60 59 58 58 57 56 59 63 65 64 64 62 59 58 58 56 53 53 52 51 54 60
289 267 184 45 339 353 20 338 301 284 265 281 302 304 295 292 298 298 290 283 281 284 289 290 280 282 308 357 22 7 348 29 30 4 347 14 64 86 127 64 49 39 40 52 58 58 46 39 37 27 359 347 347 346 356 8 12 23 46 52 59 71 75 74 70 67 67 66 64 62 60 59 59 59 60 64 67 66 65 63 62 61 60 55 49 51 56
291 282 4 27 342 317 272 250 266 286 293 292 300 305 303 318 346 348 339 316 290 289 299 307 297 275 273 166 145 319 310 14 45 11 342 10 49 48 43 45 45 36 31 46 55 51 36 31 28 21 17 16 7 0 2 357 345 354 58 90 86 80 79 77 74 71 67 61 59 61 62 60 60 63 65 62 58 60 67 72 70 66 64 64 61 56 52
261 252 127 69 248 262 261 218 262 332 334 321 311 315 336 15 13 351 332 324 316 306 301 302 309 340 355 4 6 350 353 9 15 3 1 19 28 31 44 52 53 43 29 32 40 39 35 35 33 26 28 29 17 0 355 346 349 22 49 57 58 64 72 77 79 79 75 67 56 46 42 46 50 51 53 58 60 58 61 66 70 67 63 63 64 61 57
265 240 338 354 358 357 355 5 13 0 350 343 340 342 347 356 0 343 308 310 312 303 299 305 334 4 354 353 356 4 10 14 14 12 20 24 21 29 55 60 56 51 43 41 42 40 36 35 36 37 39 39 24 4 25 42 45 45 42 34 31 46 58 60 62 66 71 75 80 77 58 45 37 31 34 45 52 52 47 44 46 52 55 55 55 56 56
269 267 346 2 15 12 4 10 22 5 346 343 347 345 339 343 352 355 337 314 328 351 10 16 14 5 7 10 13 14 12 6 9 23 33 27 14 30 60 64 58 53 50 45 40 39 39 38 40 43 40 32 23 24 32 37 39 42 43 36 32 39 49 52 51 47 46 53 61 66 58 43 36 39 46 46 44 42 37 30 30 36 43 47 46 46 47
315 351 354 6 17 12 7 17 30 21 338 337 343 343 349 1 0 351 342 350 14 24 22 14 10 24 28 20 10 11 19 21 21 27 32 27 18 41 59 59 51 48 51 47 33 23 28 38 44 44 37 30 25 24 29 33 33 38 47 48 41 38 43 49 44 38 43 47 47 44 44 44 42 42 44 41 36 32 27 23 25 31 36 36 33 32 42